Time,TemperatureF,DewpointF,PressureIn,WindDirection,WindDirectionDegrees,WindSpeedMPH,WindSpeedGustMPH,Humidity,HourlyPrecipIn,Conditions,Clouds,dailyrainin,SoftwareType,DateUTC
2013-09-14 20:52:00,0.1,-8.5,29.44,North,0,0.0,0.0,66,0.00,,---,0.00,VWS V14.01,2013-09-15 00:52:00,
2013-09-14 20:55:00,0.3,-8.3,29.47,North,0,0.0,0.0,66,0.00,,---,0.00,VWS V14.01,2013-09-15 00:55:00,
2013-09-14 20:57:00,0.5,-8.2,29.47,North,0,0.0,0.0,66,0.00,,---,0.00,VWS V14.01,2013-09-15 00:57:00,
2013-09-14 20:58:00,0.5,-8.2,29.47,North,0,0.0,0.0,66,0.00,,---,0.00,VWS V14.01,2013-09-15 00:58:00,
2013-09-14 21:03:00,0.9,-7.8,29.47,North,0,0.0,0.0,66,0.00,,---,0.00,VWS V14.01,2013-09-15 01:03:00,
2013-09-14 21:08:00,1.0,-7.7,29.47,North,0,0.0,0.0,66,0.00,,---,0.00,VWS V14.01,2013-09-15 01:08:00,
2013-09-14 21:11:00,1.2,-7.5,29.47,North,0,0.0,0.0,66,0.00,,---,0.00,VWS V14.01,2013-09-15 01:11:00,
2013-09-14 21:16:00,1.6,-7.1,29.47,North,0,0.0,0.0,66,0.00,,---,0.00,VWS V14.01,2013-09-15 01:16:00,
2013-09-14 21:21:00,1.9,-6.8,29.47,North,0,0.0,0.0,66,0.00,,---,0.00,VWS V14.01,2013-09-15 01:21:00,
2013-09-14 21:26:00,2.3,-6.4,29.47,North,0,0.0,0.0,66,0.00,,---,0.00,VWS V14.01,2013-09-15 01:26:00,
2013-09-14 21:32:00,2.5,-6.3,29.47,North,0,0.0,0.0,66,0.00,,---,0.00,VWS V14.01,2013-09-15 01:32:00,
2013-09-14 21:37:00,2.8,-5.9,29.47,North,0,0.0,0.0,66,0.00,,---,0.00,VWS V14.01,2013-09-15 01:37:00,
2013-09-14 21:42:00,3.2,-5.6,29.47,North,0,0.0,0.0,66,0.00,,---,0.00,VWS V14.01,2013-09-15 01:42:00,
2013-09-14 21:47:00,3.4,-5.4,29.47,North,0,0.0,0.0,66,0.00,,---,0.00,VWS V14.01,2013-09-15 01:47:00,
2013-09-14 21:52:00,5.7,-3.2,29.47,North,0,0.0,0.0,66,0.00,,---,0.00,VWS V14.01,2013-09-15 01:52:00,
2013-09-14 21:57:00,5.7,-3.2,29.47,North,0,0.0,0.0,66,0.00,,---,0.00,VWS V14.01,2013-09-15 01:57:00,
2013-09-14 22:02:00,5.9,-3.0,29.47,North,0,0.0,0.0,66,0.00,,---,0.00,VWS V14.01,2013-09-15 02:02:00,
2013-09-14 22:07:00,6.1,-2.8,29.47,North,0,0.0,0.0,66,0.00,,---,0.00,VWS V14.01,2013-09-15 02:07:00,
2013-09-14 22:12:00,6.1,-2.8,29.47,North,0,0.0,0.0,66,0.00,,---,0.00,VWS V14.01,2013-09-15 02:12:00,
2013-09-14 22:17:00,6.3,-2.7,29.47,North,0,0.0,0.0,66,0.00,,---,0.00,VWS V14.01,2013-09-15 02:17:00,
2013-09-14 22:22:00,6.3,-2.7,29.47,North,0,0.0,0.0,66,0.00,,---,0.00,VWS V14.01,2013-09-15 02:22:00,
2013-09-14 22:27:00,6.4,-2.5,29.47,North,0,0.0,0.0,66,0.00,,---,0.00,VWS V14.01,2013-09-15 02:27:00,
2013-09-14 22:32:00,6.4,-2.5,29.47,North,0,0.0,0.0,66,0.00,,---,0.00,VWS V14.01,2013-09-15 02:32:00,
2013-09-14 22:37:00,6.4,-2.5,29.47,North,0,0.0,0.0,66,0.00,,---,0.00,VWS V14.01,2013-09-15 02:37:00,
2013-09-14 22:42:00,6.3,-2.7,29.47,North,0,0.0,0.0,66,0.00,,---,0.00,VWS V14.01,2013-09-15 02:42:00,
2013-09-14 22:47:00,6.3,-2.7,29.47,North,0,0.0,0.0,66,0.00,,---,0.00,VWS V14.01,2013-09-15 02:47:00,
2013-09-14 22:52:00,5.9,-3.0,29.47,North,0,0.0,0.0,66,0.00,,---,0.00,VWS V14.01,2013-09-15 02:52:00,
2013-09-14 22:57:00,5.5,-3.3,29.47,North,0,0.0,0.0,66,0.00,,---,0.00,VWS V14.01,2013-09-15 02:57:00,
2013-09-14 23:02:00,5.2,-3.7,29.47,North,0,0.0,0.0,66,0.00,,---,0.00,VWS V14.01,2013-09-15 03:02:00,
2013-09-14 23:07:00,4.6,-4.2,29.47,North,0,0.0,0.0,66,0.00,,---,0.00,VWS V14.01,2013-09-15 03:07:00,
2013-09-14 23:12:00,4.1,-4.7,29.47,North,0,0.0,0.0,66,0.00,,---,0.00,VWS V14.01,2013-09-15 03:12:00,
2013-09-14 23:17:00,3.7,-5.1,29.47,North,0,0.0,0.0,66,0.00,,---,0.00,VWS V14.01,2013-09-15 03:17:00,
2013-09-14 23:22:00,3.2,-5.6,29.50,North,0,0.0,0.0,66,0.00,,---,0.00,VWS V14.01,2013-09-15 03:22:00,
2013-09-14 23:27:00,2.7,-6.1,29.50,North,0,0.0,0.0,66,0.00,,---,0.00,VWS V14.01,2013-09-15 03:27:00,
2013-09-14 23:32:00,2.3,-6.4,29.50,North,0,0.0,0.0,66,0.00,,---,0.00,VWS V14.01,2013-09-15 03:32:00,
2013-09-14 23:37:00,1.9,-6.8,29.50,North,0,0.0,0.0,66,0.00,,---,0.00,VWS V14.01,2013-09-15 03:37:00,
2013-09-14 23:42:00,1.6,-7.1,29.50,North,0,0.0,0.0,66,0.00,,---,0.00,VWS V14.01,2013-09-15 03:42:00,
2013-09-14 23:48:00,1.2,-7.5,29.50,North,0,0.0,0.0,66,0.00,,---,0.00,VWS V14.01,2013-09-15 03:48:00,
2013-09-14 23:53:00,0.7,-8.0,29.50,North,0,0.0,0.0,66,0.00,,---,0.00,VWS V14.01,2013-09-15 03:53:00,
2013-09-14 23:58:00,0.5,-8.2,29.50,North,0,0.0,0.0,66,0.00,,---,0.00,VWS V14.01,2013-09-15 03:58:00,